BEIDOU 13 (C12)

Last updated on Aug. 8, 2020, 5:33 a.m. UTC

1 38251U 12018B   20219.82803148 -.00000098  00000-0  00000+0 0  9996
2 38251  56.6675  15.3736 0012046 237.1873 119.6581  1.86232653 56429
UTC
Height (km)
Latitude
Longitude
Inclination
Orbital Period
UTC large
Height (km)
Speed (km/s)
/
Latitude / Longitude
Inclination (degrees)
Orbital Period (minutes)
Azimuth
Elevation
Range (km)
Doppler Factor
iOS Compass Heading
iOS Angle

Next 30 passes for location: Hong Kong

Rise time Rise Azimuth (degrees) Set time Set Azimuth (degrees) Duration Max altitude (degrees)

No matching passes for this satellites